New Bedford, MA

7:18 PM EST on February 06, 2016 (GMT -0500)
New Bedford Regional

Weather History for KEWB - October, 2014

Change the Weather History Date:

Saturday, October 11, 2014

  Actual Average Record
Temperature  
Mean Temperature 44 °F -  
Max Temperature 51 °F 63 °F 80 °F (1955)
Min Temperature 37 °F 47 °F 30 °F (1993)
Degree Days  
Heating Degree Days 21    
Moisture  
Dew Point 46 °F    
Average Humidity 93    
Maximum Humidity 100    
Minimum Humidity 86    
Precipitation  
Precipitation 0.41 in - - ()
Sea Level Pressure  
Sea Level Pressure 30.08 in    
Wind  
Wind Speed 2 mph (NNE)    
Max Wind Speed 8 mph    
Max Gust Speed -    
Visibility 7 miles    
Events Fog , Rain    
Averages and records for this station are not official NWS values.
T = Trace of Precipitation, MM = Missing Value Source: NWS Daily Summary

Daily Weather History Graph

Daily Weather History Graph

Search for Another Location

Airport or City:

Trip Planner

Search our weather history database for the weather conditions in past years. The results will help you decide how hot, cold, wet, or windy it might be!

Date:

Astronomy

Oct. 11, 2014 Rise Set
Actual Time 6:51 AM EDT 6:08 PM EDT
Civil Twilight 6:23 AM EDT 6:36 PM EDT
Nautical Twilight 5:51 AM EDT 7:08 PM EDT
Astronomical Twilight 5:19 AM EDT 7:41 PM EDT
Moon 8:31 PM EDT (10/11) 10:14 AM EDT (10/11)
Length of Visible Light 12h 13m
Length of Day
11h 17m
Waning Gibbous, 87% of the Moon is Illuminated
Oct 11
Waning Gibbous
Oct 15
Last Quarter
Oct 23
New
Oct 30
First Quarter
Nov 6
Full

Hourly Weather History & Observations

Time (EDT) Temp. Windchill Dew Point Humidity Pressure Visibility Wind Dir Wind Speed Gust Speed Precip Events Conditions
12:53 AM 45.0 °F - 43.0 °F 93% 30.11 in 10.0 mi Calm Calm - N/A   Overcast
1:53 AM 46.0 °F - 44.1 °F 93% 30.11 in 10.0 mi Calm Calm - N/A   Mostly Cloudy
2:53 AM 46.9 °F - 45.0 °F 93% 30.09 in 10.0 mi Calm Calm - N/A   Overcast
3:53 AM 46.9 °F - 45.0 °F 93% 30.09 in 10.0 mi Calm Calm - N/A   Overcast
4:53 AM 48.2 °F - 44.6 °F 87% 30.09 in 10.0 mi Calm Calm - N/A   Overcast
5:53 AM 48.2 °F - 46.4 °F 93% 30.09 in 10.0 mi Calm Calm - N/A Rain Light Rain
6:53 AM 48.9 °F - 45.0 °F 86% 30.10 in 10.0 mi Calm Calm - 0.02 in Rain Light Rain
7:53 AM 48.9 °F - 46.9 °F 93% 30.11 in 10.0 mi NNE 3.5 mph - 0.03 in Rain Light Rain
8:53 AM 50.0 °F - 46.9 °F 89% 30.12 in 5.0 mi NE 3.5 mph - 0.04 in Rain Light Rain
9:53 AM 50.0 °F - 48.0 °F 93% 30.08 in 10.0 mi East 4.6 mph - 0.03 in Rain Light Rain
10:53 AM 51.1 °F - 48.9 °F 92% 30.09 in 10.0 mi NNE 4.6 mph - 0.01 in Rain Light Rain
11:53 AM 51.1 °F - 48.9 °F 92% 30.08 in 5.0 mi NNE 3.5 mph - 0.06 in Rain Rain
12:30 PM 51.1 °F - 48.9 °F 92% 30.06 in 4.0 mi NE 4.6 mph - 0.09 in Rain Rain
12:37 PM 51.1 °F - 48.9 °F 92% 30.07 in 6.0 mi Calm Calm - 0.10 in Rain Rain
12:45 PM 51.1 °F - 50.0 °F 96% 30.08 in 3.0 mi WNW 3.5 mph - 0.12 in Rain Rain
12:53 PM 51.1 °F - 50.0 °F 96% 30.06 in 2.0 mi NE 3.5 mph - 0.15 in Rain Heavy Rain
1:03 PM 51.1 °F - 48.9 °F 92% 30.05 in 5.0 mi NNE 5.8 mph - 0.02 in Rain Rain
1:23 PM 51.1 °F - 48.9 °F 92% 30.06 in 8.0 mi Variable 6.9 mph - 0.05 in Rain Rain
1:53 PM 51.1 °F - 48.9 °F 92% 30.04 in 10.0 mi NNE 6.9 mph - 0.06 in Rain Light Rain
2:21 PM 51.1 °F - 48.0 °F 89% 30.04 in 10.0 mi NNE 8.1 mph - 0.00 in Rain Light Rain
2:53 PM 51.1 °F - 48.0 °F 89% 30.04 in 10.0 mi NNE 8.1 mph - 0.00 in   Overcast
3:01 PM 51.1 °F - 48.9 °F 92% 30.04 in 10.0 mi NNE 5.8 mph - N/A   Overcast
3:15 PM 51.1 °F - 48.9 °F 92% 30.05 in 10.0 mi North 5.8 mph - N/A   Overcast
3:17 PM 51.1 °F - 48.9 °F 92% 30.05 in 10.0 mi North 4.6 mph - N/A   Overcast
3:53 PM 51.1 °F - 48.0 °F 89% 30.05 in 10.0 mi Variable 3.5 mph - 0.01 in   Mostly Cloudy
4:53 PM 51.8 °F - 48.2 °F 88% 30.06 in 10.0 mi North 4.6 mph - N/A   Scattered Clouds
5:53 PM 50.0 °F - 46.9 °F 89% 30.06 in 10.0 mi Calm Calm - N/A   Partly Cloudy
6:53 PM 46.9 °F - 46.0 °F 97% 30.09 in 10.0 mi Calm Calm - N/A   Clear
7:53 PM 46.0 °F 44.8 °F 44.1 °F 93% 30.09 in 10.0 mi North 3.5 mph - N/A   Clear
8:53 PM 45.0 °F - 43.0 °F 93% 30.10 in 10.0 mi Calm Calm - N/A   Clear
9:53 PM 45.0 °F - 43.0 °F 93% 30.12 in 10.0 mi Calm Calm - N/A   Clear
10:53 PM 41.0 °F - 39.9 °F 96% 30.12 in 3.0 mi Calm Calm - N/A   Clear
10:57 PM 42.1 °F - 39.9 °F 92% 30.12 in 1.8 mi Calm Calm - N/A   Clear
11:06 PM 39.9 °F - 39.9 °F 100% 30.12 in 2.0 mi Calm Calm - N/A   Clear
11:13 PM 39.9 °F - 39.9 °F 100% 30.12 in 1.0 mi Calm Calm - N/A   Clear
11:22 PM 39.9 °F - 39.0 °F 97% 30.12 in 3.0 mi Calm Calm - N/A   Clear
11:44 PM 37.9 °F - 37.9 °F 100% 30.12 in 1.5 mi Calm Calm - N/A   Clear
11:53 PM 39.0 °F - 37.9 °F 96% 30.12 in 0.5 mi Calm Calm - N/A Fog Fog